ANA260 RJFF-RJTT

Flight info

Callsign ANA260
Flight time 1h 18m
Altitude 39000
Route IPRIR Y231 OMKAT Y235 FLUTE Y23 ARTIC Y71 XAC
Aircraft B772/H-SDFLOVE1E2E3GHIJ3J5J6M1M2RWXYP1P2/LB1D1

Departure

Time 2026-05-06 05:58
Airport Fukuoka Airport (RJFF)

Arrival

Time 2026-05-06 07:16
Airport Tokyo Haneda International Airport (RJTT)
Time Latitude Longitude Altitude Speed Heading
2026-05-06 05:40 33.59789 130.44692 29 ft 0 kts 60°
2026-05-06 05:45 33.59782 130.44677 28 ft 4 kts 60°
2026-05-06 05:46 33.59769 130.44649 28 ft 2 kts 60°
2026-05-06 05:46 33.59759 130.44626 28 ft 4 kts 80°
2026-05-06 05:46 33.59760 130.44602 26 ft 4 kts 125°
2026-05-06 05:46 33.59778 130.44584 27 ft 4 kts 151°
2026-05-06 05:47 33.59788 130.44577 28 ft 0 kts 150°
2026-05-06 05:49 33.59787 130.44578 28 ft 0 kts 149°
2026-05-06 05:49 33.59764 130.44594 25 ft 7 kts 150°
2026-05-06 05:50 33.59722 130.44622 28 ft 7 kts 150°
2026-05-06 05:50 33.59676 130.44653 29 ft 8 kts 150°
2026-05-06 05:50 33.59627 130.44685 29 ft 8 kts 158°
2026-05-06 05:50 33.59580 130.44667 28 ft 7 kts 222°
2026-05-06 05:51 33.59531 130.44660 29 ft 8 kts 162°
2026-05-06 05:51 33.59507 130.44672 28 ft 8 kts 153°
2026-05-06 05:51 33.59466 130.44698 28 ft 8 kts 151°
2026-05-06 05:52 33.59393 130.44747 29 ft 16 kts 150°
2026-05-06 05:52 33.59297 130.44812 28 ft 17 kts 150°
2026-05-06 05:52 33.59197 130.44881 29 ft 17 kts 150°
2026-05-06 05:52 33.59098 130.44949 30 ft 17 kts 150°
2026-05-06 05:53 33.58998 130.45019 30 ft 17 kts 150°
2026-05-06 05:53 33.58898 130.45087 31 ft 17 kts 150°
2026-05-06 05:53 33.58799 130.45154 32 ft 17 kts 150°
2026-05-06 05:53 33.58699 130.45221 32 ft 17 kts 151°
2026-05-06 05:54 33.58598 130.45288 32 ft 17 kts 150°
2026-05-06 05:54 33.58498 130.45357 32 ft 17 kts 150°
2026-05-06 05:54 33.58399 130.45426 37 ft 17 kts 149°
2026-05-06 05:54 33.58299 130.45497 36 ft 17 kts 149°
2026-05-06 05:55 33.58197 130.45570 38 ft 17 kts 150°
2026-05-06 05:55 33.58093 130.45640 40 ft 17 kts 152°
2026-05-06 05:55 33.57987 130.45707 42 ft 17 kts 152°
2026-05-06 05:55 33.57883 130.45776 44 ft 17 kts 150°
2026-05-06 05:56 33.57786 130.45844 46 ft 11 kts 149°
2026-05-06 05:56 33.57725 130.45856 47 ft 9 kts 197°
2026-05-06 05:56 33.57689 130.45816 48 ft 0 kts 238°
2026-05-06 05:57 33.57663 130.45757 46 ft 13 kts 253°
2026-05-06 05:57 33.57713 130.45668 46 ft 20 kts 327°
2026-05-06 05:57 33.57994 130.45475 43 ft 85 kts 330°
2026-05-06 05:57 33.58752 130.44959 120 ft 154 kts 329°
2026-05-06 05:58 33.59672 130.44324 1095 ft 150 kts 330°
2026-05-06 05:58 33.60605 130.43679 1913 ft 164 kts 330°
2026-05-06 05:58 33.61688 130.42940 2126 ft 192 kts 330°
2026-05-06 05:58 33.62932 130.42095 2359 ft 219 kts 330°
2026-05-06 05:59 33.64332 130.41262 2815 ft 230 kts 346°
2026-05-06 05:59 33.65937 130.41353 3404 ft 238 kts 23°
2026-05-06 05:59 33.67193 130.42612 4053 ft 238 kts 59°
2026-05-06 05:59 33.68018 130.44368 4619 ft 246 kts 63°
2026-05-06 06:00 33.68844 130.46208 5187 ft 253 kts 68°
2026-05-06 06:00 33.69136 130.48280 5859 ft 254 kts 99°
2026-05-06 06:00 33.68542 130.50216 6648 ft 253 kts 128°
2026-05-06 06:00 33.67233 130.51630 7333 ft 251 kts 151°
2026-05-06 06:01 33.65712 130.52673 7919 ft 259 kts 152°
2026-05-06 06:01 33.64180 130.53828 8619 ft 262 kts 147°
2026-05-06 06:01 33.62676 130.55150 9357 ft 266 kts 145°
2026-05-06 06:01 33.61184 130.56494 10102 ft 270 kts 145°
2026-05-06 06:02 33.59669 130.57853 10762 ft 274 kts 146°
2026-05-06 06:02 33.58118 130.59227 11457 ft 279 kts 146°
2026-05-06 06:02 33.56565 130.60602 12196 ft 283 kts 146°
2026-05-06 06:02 33.54971 130.62006 13011 ft 286 kts 147°
2026-05-06 06:03 33.53316 130.63453 13420 ft 306 kts 147°
2026-05-06 06:03 33.51529 130.65024 13615 ft 330 kts 144°
2026-05-06 06:03 33.50007 130.67218 13768 ft 360 kts 117°
2026-05-06 06:03 33.49402 130.70229 14064 ft 383 kts 92°
2026-05-06 06:04 33.49381 130.73475 14503 ft 396 kts 91°
2026-05-06 06:04 33.49360 130.76810 15255 ft 403 kts 91°
2026-05-06 06:04 33.49324 130.80189 16087 ft 407 kts 91°
2026-05-06 06:04 33.49276 130.83609 16948 ft 412 kts 92°
2026-05-06 06:05 33.49217 130.87057 17732 ft 417 kts 92°
2026-05-06 06:05 33.49173 130.89370 18228 ft 421 kts 92°
2026-05-06 06:05 33.49102 130.92906 18872 ft 428 kts 92°
2026-05-06 06:05 33.48999 130.97661 19790 ft 433 kts 92°
2026-05-06 06:06 33.48918 131.01285 20490 ft 437 kts 92°
2026-05-06 06:06 33.48835 131.04940 21152 ft 442 kts 92°
2026-05-06 06:06 33.48778 131.07441 21589 ft 445 kts 92°
2026-05-06 06:06 33.48691 131.11163 22214 ft 450 kts 92°
2026-05-06 06:07 33.48603 131.14891 22831 ft 456 kts 92°
2026-05-06 06:07 33.48511 131.18754 23492 ft 461 kts 92°
2026-05-06 06:07 33.48417 131.22624 24024 ft 467 kts 92°
2026-05-06 06:07 33.48321 131.26539 24469 ft 475 kts 93°
2026-05-06 06:08 33.48223 131.30480 24899 ft 483 kts 94°
2026-05-06 06:08 33.48120 131.34531 25335 ft 490 kts 94°
2026-05-06 06:08 33.48015 131.38633 25787 ft 496 kts 95°
2026-05-06 06:08 33.47908 131.42792 26231 ft 502 kts 96°
2026-05-06 06:09 33.47798 131.47000 26670 ft 508 kts 96°
2026-05-06 06:09 33.47686 131.51252 27105 ft 514 kts 97°
2026-05-06 06:09 33.47571 131.55550 27511 ft 520 kts 97°
2026-05-06 06:09 33.47455 131.59900 27916 ft 525 kts 97°
2026-05-06 06:10 33.47337 131.64294 28314 ft 530 kts 98°
2026-05-06 06:10 33.47215 131.68731 28672 ft 535 kts 98°
2026-05-06 06:10 33.47233 131.73220 29032 ft 545 kts 94°
2026-05-06 06:10 33.47581 131.77781 29387 ft 555 kts 87°
2026-05-06 06:11 33.48234 131.82369 29748 ft 561 kts 85°
2026-05-06 06:11 33.48950 131.86992 30057 ft 567 kts 85°
2026-05-06 06:11 33.49677 131.91658 30321 ft 572 kts 85°
2026-05-06 06:11 33.50392 131.96355 30686 ft 573 kts 85°
2026-05-06 06:12 33.51086 132.01053 31089 ft 573 kts 86°
2026-05-06 06:12 33.51763 132.05757 31499 ft 572 kts 86°
2026-05-06 06:12 33.52430 132.10463 31858 ft 573 kts 86°
2026-05-06 06:12 33.53095 132.15187 32157 ft 575 kts 86°
2026-05-06 06:13 33.53763 132.19917 32465 ft 577 kts 86°
2026-05-06 06:13 33.54434 132.24659 32747 ft 578 kts 86°
2026-05-06 06:13 33.55158 132.29412 33030 ft 582 kts 84°
2026-05-06 06:13 33.56144 132.34132 33291 ft 587 kts 78°
2026-05-06 06:14 33.57468 132.38779 33551 ft 591 kts 75°
2026-05-06 06:14 33.58879 132.43395 33849 ft 591 kts 74°
2026-05-06 06:14 33.60318 132.48032 34220 ft 589 kts 74°
2026-05-06 06:14 33.61738 132.52642 34573 ft 587 kts 75°
2026-05-06 06:15 33.63131 132.57236 34857 ft 586 kts 75°
2026-05-06 06:15 33.64498 132.61830 35129 ft 585 kts 75°
2026-05-06 06:15 33.65835 132.66373 35455 ft 583 kts 75°
2026-05-06 06:15 33.67181 132.70958 35809 ft 581 kts 75°
2026-05-06 06:16 33.68519 132.75521 36177 ft 578 kts 75°
2026-05-06 06:16 33.69853 132.80073 36440 ft 579 kts 75°
2026-05-06 06:16 33.72545 132.89272 36516 ft 588 kts 75°
2026-05-06 06:17 33.75276 132.98620 36605 ft 597 kts 75°
2026-05-06 06:17 33.78037 133.08093 36756 ft 604 kts 75°
2026-05-06 06:18 33.79422 133.12862 36911 ft 604 kts 75°
2026-05-06 06:18 33.80806 133.17626 37181 ft 601 kts 75°
2026-05-06 06:18 33.82179 133.22365 37302 ft 601 kts 75°
2026-05-06 06:18 33.83550 133.27105 37369 ft 602 kts 75°
2026-05-06 06:19 33.86300 133.36642 37423 ft 604 kts 75°
2026-05-06 06:19 33.89049 133.46209 37607 ft 605 kts 75°
2026-05-06 06:20 33.91795 133.55784 37709 ft 605 kts 75°
2026-05-06 06:20 33.93166 133.60584 37842 ft 605 kts 75°
2026-05-06 06:20 33.94529 133.65369 37959 ft 605 kts 75°
2026-05-06 06:21 33.97262 133.74970 38020 ft 607 kts 75°
2026-05-06 06:21 33.98627 133.79777 38165 ft 606 kts 75°
2026-05-06 06:21 33.99988 133.84581 38264 ft 606 kts 75°
2026-05-06 06:22 34.02711 133.94210 38363 ft 607 kts 75°
2026-05-06 06:22 34.04944 134.03963 38538 ft 601 kts 82°
2026-05-06 06:23 34.06665 134.13832 38650 ft 602 kts 83°
2026-05-06 06:23 34.08421 134.23713 38850 ft 602 kts 82°
2026-05-06 06:24 34.10232 134.33578 39044 ft 602 kts 82°
2026-05-06 06:24 34.12023 134.43431 39106 ft 593 kts 82°
2026-05-06 06:25 34.12885 134.48183 39110 ft 580 kts 82°
2026-05-06 06:25 34.13736 134.52900 39126 ft 574 kts 82°
2026-05-06 06:26 34.16278 134.67143 39141 ft 582 kts 82°
2026-05-06 06:26 34.17985 134.76727 39143 ft 586 kts 82°
2026-05-06 06:27 34.19702 134.86395 39138 ft 590 kts 82°
2026-05-06 06:27 34.21419 134.96113 39139 ft 593 kts 82°
2026-05-06 06:28 34.23116 135.05889 39151 ft 595 kts 82°
2026-05-06 06:28 34.24770 135.15700 39151 ft 597 kts 83°
2026-05-06 06:29 34.26421 135.25553 39155 ft 598 kts 83°
2026-05-06 06:29 34.28073 135.35418 39154 ft 599 kts 83°
2026-05-06 06:30 34.29723 135.45292 39147 ft 599 kts 83°
2026-05-06 06:30 34.31364 135.55168 39144 ft 598 kts 83°
2026-05-06 06:31 34.32984 135.64979 39141 ft 598 kts 83°
2026-05-06 06:31 34.34603 135.74840 39148 ft 597 kts 83°
2026-05-06 06:32 34.36214 135.84703 39150 ft 597 kts 83°
2026-05-06 06:32 34.37818 135.94572 39163 ft 597 kts 83°
2026-05-06 06:33 34.39413 136.04444 39156 ft 598 kts 83°
2026-05-06 06:33 34.41003 136.14337 39170 ft 599 kts 83°
2026-05-06 06:34 34.42589 136.24246 39151 ft 599 kts 83°
2026-05-06 06:34 34.44166 136.34146 39162 ft 597 kts 83°
2026-05-06 06:35 34.45716 136.43966 39169 ft 597 kts 83°
2026-05-06 06:35 34.47271 136.53865 39162 ft 598 kts 83°
2026-05-06 06:36 34.48819 136.63763 39168 ft 598 kts 84°
2026-05-06 06:36 34.50363 136.73683 39166 ft 599 kts 84°
2026-05-06 06:37 34.51901 136.83629 39164 ft 600 kts 84°
2026-05-06 06:37 34.53408 136.93586 39166 ft 600 kts 86°
2026-05-06 06:38 34.54077 137.03593 39156 ft 591 kts 96°
2026-05-06 06:38 34.54066 137.13558 39154 ft 591 kts 97°
2026-05-06 06:39 34.54056 137.23543 39156 ft 592 kts 96°
2026-05-06 06:39 34.54113 137.33541 39153 ft 593 kts 96°
2026-05-06 06:40 34.54180 137.43542 39156 ft 593 kts 96°
2026-05-06 06:40 34.54228 137.53493 39157 ft 593 kts 96°
2026-05-06 06:41 34.54265 137.63496 39165 ft 593 kts 96°
2026-05-06 06:41 34.54293 137.73515 39163 ft 594 kts 95°
2026-05-06 06:42 34.54313 137.83540 39165 ft 594 kts 95°
2026-05-06 06:42 34.54325 137.93568 39167 ft 595 kts 95°
2026-05-06 06:43 34.54674 138.03563 39092 ft 586 kts 87°
2026-05-06 06:43 34.55337 138.08411 38751 ft 581 kts 81°
2026-05-06 06:43 34.56196 138.13201 38050 ft 581 kts 80°
2026-05-06 06:43 34.57101 138.17979 37315 ft 581 kts 80°
2026-05-06 06:44 34.58007 138.22749 36602 ft 580 kts 80°
2026-05-06 06:44 34.58896 138.27528 35906 ft 579 kts 81°
2026-05-06 06:44 34.59760 138.32299 35217 ft 578 kts 81°
2026-05-06 06:44 34.60603 138.37061 34548 ft 576 kts 81°
2026-05-06 06:45 34.61433 138.41810 33820 ft 575 kts 82°
2026-05-06 06:45 34.62256 138.46557 32954 ft 575 kts 81°
2026-05-06 06:45 34.63079 138.51321 31971 ft 578 kts 81°
2026-05-06 06:45 34.63907 138.56102 31123 ft 579 kts 80°
2026-05-06 06:46 34.64733 138.60866 30530 ft 574 kts 80°
2026-05-06 06:46 34.65551 138.65575 29999 ft 567 kts 79°
2026-05-06 06:46 34.66348 138.70173 29440 ft 560 kts 80°
2026-05-06 06:46 34.67143 138.74773 28905 ft 553 kts 80°
2026-05-06 06:47 34.67927 138.79322 28369 ft 547 kts 80°
2026-05-06 06:47 34.68698 138.83820 27821 ft 541 kts 80°
2026-05-06 06:47 34.69482 138.88273 27263 ft 537 kts 78°
2026-05-06 06:47 34.70508 138.92614 26721 ft 533 kts 71°
2026-05-06 06:48 34.71856 138.96753 26193 ft 528 kts 68°
2026-05-06 06:48 34.73303 139.00883 25683 ft 523 kts 67°
2026-05-06 06:48 34.74734 139.04925 25177 ft 518 kts 67°
2026-05-06 06:48 34.76143 139.08937 24692 ft 513 kts 68°
2026-05-06 06:49 34.77525 139.12922 24215 ft 509 kts 68°
2026-05-06 06:49 34.78880 139.16878 23762 ft 504 kts 68°
2026-05-06 06:49 34.80215 139.20806 23237 ft 499 kts 69°
2026-05-06 06:49 34.81528 139.24691 22750 ft 494 kts 68°
2026-05-06 06:50 34.82826 139.28538 22261 ft 489 kts 68°
2026-05-06 06:50 34.84109 139.32342 21774 ft 484 kts 68°
2026-05-06 06:50 34.85381 139.36116 21313 ft 479 kts 68°
2026-05-06 06:50 34.86217 139.38596 20997 ft 477 kts 68°
2026-05-06 06:51 34.87872 139.43511 20397 ft 471 kts 67°
2026-05-06 06:51 34.89108 139.47184 19965 ft 466 kts 67°
2026-05-06 06:51 34.90333 139.50830 19540 ft 462 kts 66°
2026-05-06 06:51 34.91153 139.53271 19252 ft 459 kts 66°
2026-05-06 06:52 34.92741 139.58009 18705 ft 454 kts 66°
2026-05-06 06:52 34.93546 139.60411 18554 ft 448 kts 66°
2026-05-06 06:52 34.94702 139.63871 18479 ft 434 kts 66°
2026-05-06 06:52 34.95826 139.67231 18399 ft 418 kts 65°
2026-05-06 06:53 34.96864 139.70345 18176 ft 387 kts 65°
2026-05-06 06:53 34.98075 139.73283 17663 ft 384 kts 53°
2026-05-06 06:53 34.99695 139.75833 17175 ft 388 kts 42°
2026-05-06 06:53 35.01640 139.78199 16630 ft 407 kts 39°
2026-05-06 06:54 35.03724 139.80681 16043 ft 428 kts 40°
2026-05-06 06:54 35.05865 139.83256 15505 ft 430 kts 41°
2026-05-06 06:54 35.07975 139.85818 14988 ft 427 kts 41°
2026-05-06 06:54 35.10066 139.88371 14496 ft 424 kts 41°
2026-05-06 06:55 35.12141 139.90912 13966 ft 422 kts 42°
2026-05-06 06:55 35.14209 139.93448 13404 ft 419 kts 42°
2026-05-06 06:55 35.16265 139.95970 12855 ft 416 kts 43°
2026-05-06 06:55 35.18299 139.98468 12326 ft 412 kts 43°
2026-05-06 06:56 35.20314 140.00942 11806 ft 409 kts 43°
2026-05-06 06:56 35.22309 140.03394 11279 ft 405 kts 43°
2026-05-06 06:56 35.24292 140.05833 10777 ft 402 kts 44°
2026-05-06 06:56 35.26223 140.08210 10599 ft 388 kts 44°
2026-05-06 06:57 35.28095 140.10517 10422 ft 375 kts 44°
2026-05-06 06:57 35.29902 140.12745 10248 ft 362 kts 44°
2026-05-06 06:57 35.31650 140.14900 10096 ft 350 kts 44°
2026-05-06 06:57 35.33336 140.16979 9862 ft 340 kts 44°
2026-05-06 06:58 35.34958 140.18982 9657 ft 330 kts 44°
2026-05-06 06:58 35.36589 140.20891 9377 ft 317 kts 35°
2026-05-06 06:58 35.38520 140.22028 9176 ft 303 kts 11°
2026-05-06 06:58 35.40560 140.22254 9071 ft 287 kts 354°
2026-05-06 06:59 35.42523 140.22073 9005 ft 281 kts 352°
2026-05-06 06:59 35.44456 140.21848 8987 ft 279 kts 352°
2026-05-06 06:59 35.46394 140.21618 9002 ft 282 kts 352°
2026-05-06 06:59 35.48353 140.21390 8992 ft 284 kts 352°
2026-05-06 07:00 35.50331 140.21168 8988 ft 285 kts 353°
2026-05-06 07:00 35.52311 140.20952 8973 ft 286 kts 353°
2026-05-06 07:00 35.54291 140.20740 8977 ft 285 kts 353°
2026-05-06 07:00 35.56265 140.20530 8968 ft 284 kts 353°
2026-05-06 07:01 35.58234 140.20323 8966 ft 283 kts 353°
2026-05-06 07:01 35.60195 140.20118 8960 ft 282 kts 353°
2026-05-06 07:01 35.62152 140.19913 8966 ft 282 kts 353°
2026-05-06 07:01 35.64100 140.19709 8964 ft 281 kts 353°
2026-05-06 07:02 35.66049 140.19505 8958 ft 281 kts 353°
2026-05-06 07:02 35.67991 140.19285 8959 ft 277 kts 348°
2026-05-06 07:02 35.69744 140.18447 8965 ft 267 kts 320°
2026-05-06 07:02 35.70932 140.16810 8957 ft 249 kts 297°
2026-05-06 07:03 35.71588 140.14915 8952 ft 236 kts 286°
2026-05-06 07:03 35.72114 140.13024 8719 ft 233 kts 286°
2026-05-06 07:03 35.72635 140.11134 8415 ft 233 kts 286°
2026-05-06 07:03 35.73156 140.09256 8149 ft 231 kts 286°
2026-05-06 07:04 35.73677 140.07395 7904 ft 229 kts 286°
2026-05-06 07:04 35.74196 140.05548 7637 ft 228 kts 286°
2026-05-06 07:04 35.74712 140.03711 7369 ft 226 kts 286°
2026-05-06 07:04 35.75225 140.01884 7111 ft 225 kts 286°
2026-05-06 07:05 35.75735 140.00069 6864 ft 223 kts 285°
2026-05-06 07:05 35.76237 139.98283 6605 ft 222 kts 285°
2026-05-06 07:05 35.76740 139.96492 6324 ft 220 kts 285°
2026-05-06 07:05 35.77232 139.94742 6097 ft 217 kts 285°
2026-05-06 07:06 35.77726 139.92982 6039 ft 213 kts 285°
2026-05-06 07:06 35.78207 139.91262 6010 ft 218 kts 285°
2026-05-06 07:06 35.78705 139.89483 6011 ft 221 kts 286°
2026-05-06 07:06 35.79206 139.87695 5983 ft 219 kts 285°
2026-05-06 07:07 35.79705 139.85914 5807 ft 222 kts 286°
2026-05-06 07:07 35.80208 139.84118 5596 ft 220 kts 286°
2026-05-06 07:07 35.80702 139.82352 5397 ft 217 kts 286°
2026-05-06 07:07 35.81162 139.80599 5190 ft 214 kts 281°
2026-05-06 07:08 35.81439 139.78815 5016 ft 209 kts 277°
2026-05-06 07:08 35.81675 139.77069 4829 ft 204 kts 277°
2026-05-06 07:08 35.81899 139.75375 4629 ft 195 kts 273°
2026-05-06 07:08 35.81672 139.73783 4492 ft 186 kts 241°
2026-05-06 07:09 35.80889 139.72543 4445 ft 187 kts 219°
2026-05-06 07:09 35.79803 139.71694 4356 ft 183 kts 211°
2026-05-06 07:09 35.78699 139.70929 4258 ft 179 kts 211°
2026-05-06 07:09 35.77641 139.70197 4172 ft 170 kts 210°
2026-05-06 07:10 35.76616 139.69485 4103 ft 168 kts 210°
2026-05-06 07:10 35.75604 139.68782 4025 ft 167 kts 209°
2026-05-06 07:10 35.74505 139.68394 3922 ft 168 kts 179°
2026-05-06 07:10 35.73359 139.68639 3833 ft 168 kts 173°
2026-05-06 07:11 35.72188 139.68882 3720 ft 173 kts 173°
2026-05-06 07:11 35.71005 139.69130 3588 ft 170 kts 172°
2026-05-06 07:11 35.69861 139.69369 3434 ft 165 kts 172°
2026-05-06 07:11 35.68803 139.69906 3205 ft 165 kts 150°
2026-05-06 07:12 35.67828 139.70646 2952 ft 163 kts 153°
2026-05-06 07:12 35.66897 139.71316 2729 ft 152 kts 153°
2026-05-06 07:12 35.65998 139.71958 2483 ft 149 kts 153°
2026-05-06 07:12 35.65094 139.72603 2251 ft 151 kts 153°
2026-05-06 07:13 35.64193 139.73246 2031 ft 147 kts 153°
2026-05-06 07:13 35.63322 139.73865 1815 ft 144 kts 153°
2026-05-06 07:13 35.62448 139.74487 1594 ft 145 kts 154°
2026-05-06 07:13 35.61606 139.75089 1391 ft 135 kts 154°
2026-05-06 07:14 35.60817 139.75652 1184 ft 130 kts 154°
2026-05-06 07:14 35.60016 139.76219 989 ft 133 kts 153°
2026-05-06 07:14 35.59211 139.76793 809 ft 135 kts 152°
2026-05-06 07:14 35.58399 139.77390 641 ft 136 kts 153°
2026-05-06 07:15 35.57591 139.77966 394 ft 133 kts 154°
2026-05-06 07:15 35.56804 139.78518 141 ft 129 kts 155°
2026-05-06 07:15 35.56035 139.79058 38 ft 123 kts 155°
2026-05-06 07:15 35.55384 139.79510 32 ft 84 kts 150°
2026-05-06 07:16 35.55037 139.79757 33 ft 36 kts 150°
2026-05-06 07:16 35.54858 139.79879 33 ft 25 kts 155°
2026-05-06 07:16 35.54702 139.79928 31 ft 22 kts 174°
2026-05-06 07:16 35.54606 139.79912 29 ft 12 kts 212°
2026-05-06 07:17 35.54588 139.79842 29 ft 8 kts 288°
2026-05-06 07:17 35.54629 139.79793 29 ft 8 kts 324°
2026-05-06 07:17 35.54677 139.79755 29 ft 8 kts 329°
2026-05-06 07:17 35.54726 139.79719 29 ft 8 kts 329°
2026-05-06 07:18 35.54776 139.79686 30 ft 8 kts 332°
2026-05-06 07:18 35.54825 139.79652 30 ft 9 kts 330°
2026-05-06 07:18 35.54889 139.79607 30 ft 11 kts 330°
2026-05-06 07:18 35.54953 139.79562 29 ft 11 kts 330°
2026-05-06 07:19 35.55017 139.79517 32 ft 11 kts 329°
2026-05-06 07:19 35.55079 139.79472 32 ft 10 kts 329°
2026-05-06 07:19 35.55113 139.79405 30 ft 10 kts 268°
2026-05-06 07:19 35.55083 139.79320 30 ft 11 kts 240°
2026-05-06 07:20 35.55045 139.79240 31 ft 10 kts 240°
2026-05-06 07:20 35.55038 139.79167 33 ft 8 kts 295°
2026-05-06 07:20 35.55080 139.79122 32 ft 8 kts 327°
2026-05-06 07:20 35.55120 139.79092 32 ft 0 kts 324°
2026-05-06 07:21 35.55127 139.79066 32 ft 8 kts 274°
2026-05-06 07:21 35.55112 139.79010 31 ft 5 kts 242°
2026-05-06 07:21 35.55105 139.78995 32 ft 0 kts 240°